This demonstration page uses our WeatherBlox Daily Observations layout. Learn more.

Left ArrowRight Arrow

40.97296, -117.73568

Hourly Observations for May 20, 2022

Temp ( °F °C ) Dew Point ( °F °C ) Humidity (%) Winds ( mph kmh ) Pressure ( in mb ) Visibility ( mi km ) Precip ( " mm )
12:56 am 00:56 Cloudy 41 5 16 -8.9 36 36 N 18 30 29.96 1014 10 16 0.00 0.00
1:56 am 01:56 Cloudy 39 3.9 18 -7.8 43 43 N 14 22 29.97 1015 10 16 0.00 0.00
2:56 am 02:56 Mostly Cloudy 37 2.8 19 -7.2 48 48 N 10 17 29.98 1015 10 16 0.00 0.00
3:56 am 03:56 Clear 33 0.6 18 -7.8 54 54 NNW 8 13 29.99 1016 10 16 0.00 0.00
4:56 am 04:56 Clear 32 0 19 -7.2 59 59 NNW 8 13 30.00 1016 10 16 0.00 0.00
5:56 am 05:56 Sunny 33 0.6 19 -7.2 56 56 N 8 13 30.02 1017 10 16 0.00 0.00
6:56 am 06:56 Sunny 38 3.3 21 -6.1 51 51 NNW 9 15 30.04 1017 10 16 0.00 0.00
7:56 am 07:56 Sunny 41 5 21 -6.1 45 45 NNW 10 17 30.05 1018 10 16 0.00 0.00
8:56 am 08:56 Sunny 44 6.7 20 -6.7 38 38 VRB 5 7 30.06 1018 10 16 0.00 0.00
9:56 am 09:56 Mostly Sunny 49 9.4 21 -6.1 33 33 ENE 12 19 30.04 1017 10 16 0.00 0.00
10:56 am 10:56 Sunny 49 9.4 21 -6.1 33 33 NE 12 19 30.03 1017 10 16 0.00 0.00
11:56 am 11:56 Mostly Sunny 52 11.1 21 -6.1 30 30 NNE 12 19 30.01 1016 10 16 0.00 0.00
12:56 pm 12:56 Sunny 57 13.9 21 -6.1 25 25 ENE 14 22 29.97 1015 10 16 0.00 0.00
1:56 pm 13:56 Sunny 59 15 21 -6.1 23 23 NNE 15 24 29.95 1014 10 16 0.00 0.00
2:56 pm 14:56 Sunny 60 15.6 19 -7.2 20 20 E 13 20 29.94 1014 10 16 0.00 0.00
3:56 pm 15:56 Mostly Sunny 61 16.1 18 -7.8 19 19 ENE 14 22 29.93 1014 10 16 0.00 0.00
4:56 pm 16:56 Mostly Sunny 62 16.7 16 -8.9 17 17 NE 12 19 29.91 1013 10 16 0.00 0.00
5:56 pm 17:56 Partly Cloudy 61 16.1 16 -8.9 17 17 E 10 17 29.91 1013 10 16 0.00 0.00
6:54 pm 18:54 Partly Cloudy 61 16 16 -9 17 17 ENE 13 20 29.80 1009 10 16 0.00 0.00
6:56 pm 18:56 Partly Cloudy 59 15 16 -8.9 18 18 ENE 12 19 29.91 1013 10 16 0.00 0.00
7:56 pm 19:56 Mostly Cloudy 56 13.3 15 -9.4 20 20 NE 10 17 29.92 1013 10 16 0.00 0.00
8:56 pm 20:56 Clear 51 10.6 17 -8.3 26 26 ENE 7 11 29.94 1014 10 16 0.00 0.00
9:56 pm 21:56 Mostly Clear 49 9.4 17 -8.3 28 28 NE 8 13 29.95 1014 10 16 0.00 0.00
10:56 pm 22:56 Clear 48 8.9 17 -8.3 29 29 NE 12 19 29.96 1015 10 16 0.00 0.00
11:56 pm 23:56 Mostly Cloudy 48 8.9 17 -8.3 29 29 NE 13 20 29.95 1014 10 16 0.00 0.00

Powered by AerisWeather